OBJECT H, 55016

Orbit data source: Space-Track

You're viewing an Uncataloged Satellite

Recently launched and/or uncataloged satellites may have evolving metadata. Metadata may include but not limited to: Owner, Maufacturer, Bus, Motor, and Mission.

OBJECT H, 55016 is a satellite in SSO that was launched on Tue, 03 Jan 2023 UTC via an FALCON 9 launch vehicle from the Air Force Eastern Test Range (AFETR). Unknown objects in Earth's orbit typically refer to objects detected orbiting the Earth but have not yet been identified or cataloged. These objects could be anything from previously untracked satellites, spent rocket stages, debris from satellite collisions, or even natural meteoroids temporarily captured by Earth's gravity.

Loading next visibility...
Identifier
55016, 2023-001H
Orbit
SSO
Country
Flag of TBDTBD
Related business
None
Manufacturer
Unknown
Mission
Non-operational Commercial Technology
Bus & Motor
Unknown
Mass
Unknown
Launch date (UTC)
2023-01-03 (3 years ago)
Launch vehicle
FALCON 9
Launch site
Air Force Eastern Test Range (AFETR)
Object type
Unknown
Shape & HBR
Box + 2 Pan, 0.1 m
Radar Cross Section
0.080 m², Medium (>0.1 m² and < 1m²)

Expand to show TLE details & history
Last TLE update: 12 hours ago

TLE from 12 hours ago
0 OBJECT H
1 55016U 23001H   25311.28387922  .00017406  00000-0  51490-3 0  9996
2 55016  97.3496  10.5382 0007583 177.6247 182.5034 15.34942552158101
Epoch: 2025-11-07T06:48Z
TLE epoch observation values (Epoch: 2025-11-07T06:48:47.164Z)
Latitude
-0.00001°
Longitude
-138.38837°
Altitude
469.386 km
Speed
7.629 km/s
True Right ascension
00h 42m 09s
True Declination
0° 00' 00"
Sunlit
Object was in full shadow at epoch
Visualization orbit readout
Latitude
Unknown
Longitude
Unknown
Altitude
Unknown
Speed
Unknown
Apparent Right ascension
Unknown
Apparent Declination
Unknown
Sunlit
N/A
Visualization observer readout
Local Sidereal Time
15:26:42
Azimuth
Unknown
Elevation
Unknown
Doppler factor
Unknown
Orbital elements
Apogee altitude
463.219 km
Perigee altitude
452.851 km
Semi-major axis
6,836.172 km
Eccentricity
0.00076
Inclination
97.3496°
RAAN
10.5382°
Arg. of periapsis
177.6247°
True anomaly
182.49961°
Mean anomaly
182.5034°
Eccentric anomaly
182.5015°
Mean motion
3.83993 °/min
Orbital period
93.75 mins
BSTAR
0.0005149
Loading maneuver chart data...
Computing Atmospheric mass density...
Loading historical data...
Loading historical data...
Loading historical data...
Loading historical data...
Loading historical data...
Loading historical data...
Loading historical data...

Documentation

Showing up to 5 results
|